Time,TemperatureF,DewpointF,PressureIn,WindDirection,WindDirectionDegrees,WindSpeedMPH,WindSpeedGustMPH,Humidity,HourlyPrecipIn,Conditions,Clouds,dailyrainin,SoftwareType,DateUTC
2013-03-23 00:14:00,25.0,20.0,30.05,NW,304,0.0,0.0,82,0.00,,,0.00,weatherlink.com 1.10,2013-03-23 04:14:00,
2013-03-23 00:30:00,25.2,21.0,30.04,NW,305,0.0,0.0,85,0.00,,,0.00,weatherlink.com 1.10,2013-03-23 04:30:00,
2013-03-23 00:45:00,26.0,22.0,30.05,NW,305,0.0,0.0,85,0.00,,,0.00,weatherlink.com 1.10,2013-03-23 04:45:00,
2013-03-23 01:00:00,26.6,23.0,30.05,NW,304,0.0,1.0,85,0.00,,,0.00,weatherlink.com 1.10,2013-03-23 05:00:00,
2013-03-23 01:15:00,27.3,23.0,30.05,NW,304,0.0,0.0,82,0.00,,,0.00,weatherlink.com 1.10,2013-03-23 05:15:00,
2013-03-23 01:30:00,27.7,22.0,30.04,NW,305,0.0,0.0,80,0.00,,,0.00,weatherlink.com 1.10,2013-03-23 05:30:00,
2013-03-23 01:45:00,28.3,23.0,30.05,NW,304,0.0,0.0,80,0.00,,,0.00,weatherlink.com 1.10,2013-03-23 05:45:00,
2013-03-23 02:00:00,28.5,23.0,30.05,NW,305,0.0,0.0,80,0.00,,,0.00,weatherlink.com 1.10,2013-03-23 06:00:00,
2013-03-23 02:15:00,28.1,23.0,30.05,NW,305,0.0,0.0,80,0.00,,,0.00,weatherlink.com 1.10,2013-03-23 06:15:00,
2013-03-23 02:30:00,27.1,22.0,30.05,NW,304,0.0,0.0,80,0.00,,,0.00,weatherlink.com 1.10,2013-03-23 06:30:00,
2013-03-23 02:45:00,26.6,22.0,30.05,NW,305,0.0,0.0,83,0.00,,,0.00,weatherlink.com 1.10,2013-03-23 06:45:00,
2013-03-23 03:00:00,27.8,22.0,30.05,NW,304,0.0,1.0,79,0.00,,,0.00,weatherlink.com 1.10,2013-03-23 07:00:00,
2013-03-23 03:15:00,29.2,22.0,30.05,NW,309,0.0,1.0,74,0.00,,,0.00,weatherlink.com 1.10,2013-03-23 07:15:00,
2013-03-23 03:30:00,29.5,22.0,30.05,NW,307,0.0,1.0,72,0.00,,,0.00,weatherlink.com 1.10,2013-03-23 07:30:00,
2013-03-23 03:45:00,30.1,21.0,30.05,NW,308,0.0,1.0,70,0.00,,,0.00,weatherlink.com 1.10,2013-03-23 07:45:00,
2013-03-23 04:00:00,30.4,21.0,30.05,West,274,0.0,1.0,68,0.00,,,0.00,weatherlink.com 1.10,2013-03-23 08:00:00,
2013-03-23 04:15:00,30.5,21.0,30.04,South,177,0.0,1.0,67,0.00,,,0.00,weatherlink.com 1.10,2013-03-23 08:15:00,
2013-03-23 04:30:00,30.3,20.0,30.04,SSE,150,0.0,1.0,67,0.00,,,0.00,weatherlink.com 1.10,2013-03-23 08:30:00,
2013-03-23 04:45:00,30.0,20.0,30.04,SE,128,0.0,1.0,67,0.00,,,0.00,weatherlink.com 1.10,2013-03-23 08:45:00,
2013-03-23 05:00:00,29.8,20.0,30.03,NNW,340,0.0,1.0,67,0.00,,,0.00,weatherlink.com 1.10,2013-03-23 09:00:00,
2013-03-23 05:15:00,28.7,20.0,30.03,NNW,340,0.0,0.0,71,0.00,,,0.00,weatherlink.com 1.10,2013-03-23 09:15:00,
2013-03-23 05:30:00,27.5,21.0,30.03,NNW,340,0.0,0.0,75,0.00,,,0.00,weatherlink.com 1.10,2013-03-23 09:30:00,
2013-03-23 05:45:00,25.9,20.0,30.03,NNW,340,0.0,0.0,77,0.00,,,0.00,weatherlink.com 1.10,2013-03-23 09:45:00,
2013-03-23 06:00:00,25.7,21.0,30.04,NNW,340,0.0,0.0,81,0.00,,,0.00,weatherlink.com 1.10,2013-03-23 10:00:00,
2013-03-23 06:15:00,26.7,22.0,30.03,NNW,340,0.0,0.0,81,0.00,,,0.00,weatherlink.com 1.10,2013-03-23 10:15:00,
2013-03-23 06:30:00,27.5,22.0,30.04,NNW,340,0.0,0.0,79,0.00,,,0.00,weatherlink.com 1.10,2013-03-23 10:30:00,
2013-03-23 06:45:00,28.5,22.0,30.04,NNW,340,0.0,1.0,76,0.00,,,0.00,weatherlink.com 1.10,2013-03-23 10:45:00,
2013-03-23 07:00:00,29.0,22.0,30.05,NNW,340,0.0,1.0,74,0.00,,,0.00,weatherlink.com 1.10,2013-03-23 11:00:00,
2013-03-23 07:15:00,29.1,22.0,30.05,NNW,340,0.0,0.0,74,0.00,,,0.00,weatherlink.com 1.10,2013-03-23 11:15:00,
2013-03-23 07:30:00,29.3,22.0,30.05,NNW,340,0.0,0.0,74,0.00,,,0.00,weatherlink.com 1.10,2013-03-23 11:30:00,
2013-03-23 07:45:00,29.4,22.0,30.06,NNW,340,0.0,0.0,75,0.00,,,0.00,weatherlink.com 1.10,2013-03-23 11:45:00,
2013-03-23 08:00:00,29.5,22.0,30.06,North,349,0.0,0.0,73,0.00,,,0.00,weatherlink.com 1.10,2013-03-23 12:00:00,
2013-03-23 08:15:00,29.7,22.0,30.06,NNW,348,0.0,0.0,72,0.00,,,0.00,weatherlink.com 1.10,2013-03-23 12:15:00,
2013-03-23 08:30:00,30.2,22.0,30.07,NW,316,0.0,0.0,71,0.00,,,0.00,weatherlink.com 1.10,2013-03-23 12:30:00,
2013-03-23 08:45:00,30.5,22.0,30.07,NE,48,0.0,0.0,70,0.00,,,0.00,weatherlink.com 1.10,2013-03-23 12:45:00,
2013-03-23 09:00:00,30.9,23.0,30.08,NNE,33,0.0,2.0,71,0.00,,,0.00,weatherlink.com 1.10,2013-03-23 13:00:00,
2013-03-23 09:15:00,32.0,22.0,30.07,NNE,28,0.0,2.0,68,0.00,,,0.00,weatherlink.com 1.10,2013-03-23 13:15:00,
2013-03-23 09:30:00,32.7,23.0,30.08,NNE,29,1.0,3.0,67,0.00,,,0.00,weatherlink.com 1.10,2013-03-23 13:30:00,
2013-03-23 09:46:00,33.0,23.0,30.08,North,4,1.0,2.0,66,0.00,,,0.00,weatherlink.com 1.10,2013-03-23 13:46:00,
2013-03-23 10:01:00,33.8,24.0,30.07,ESE,115,0.0,2.0,67,0.00,,,0.00,weatherlink.com 1.10,2013-03-23 14:01:00,
2013-03-23 10:16:00,34.5,23.0,30.08,NNW,348,0.0,2.0,63,0.00,,,0.00,weatherlink.com 1.10,2013-03-23 14:16:00,
2013-03-23 10:46:00,36.0,24.0,30.08,North,5,0.0,1.0,62,0.00,,,0.00,weatherlink.com 1.10,2013-03-23 14:46:00,
2013-03-23 11:16:00,39.1,25.0,30.08,NNE,31,1.0,3.0,58,0.00,,,0.00,weatherlink.com 1.10,2013-03-23 15:16:00,
2013-03-23 11:31:00,40.7,26.0,30.08,North,360,1.0,3.0,56,0.00,,,0.00,weatherlink.com 1.10,2013-03-23 15:31:00,
2013-03-23 11:46:00,42.2,26.0,30.08,NW,316,0.0,2.0,54,0.00,,,0.00,weatherlink.com 1.10,2013-03-23 15:46:00,
2013-03-23 12:01:00,43.2,26.0,30.08,NNW,338,1.0,4.0,51,0.00,,,0.00,weatherlink.com 1.10,2013-03-23 16:01:00,
2013-03-23 12:16:00,44.2,26.0,30.08,NNE,16,2.0,4.0,50,0.00,,,0.00,weatherlink.com 1.10,2013-03-23 16:16:00,
2013-03-23 12:31:00,44.6,26.0,30.07,NE,47,0.0,5.0,48,0.00,,,0.00,weatherlink.com 1.10,2013-03-23 16:31:00,
2013-03-23 12:46:00,44.5,27.0,30.07,NNE,22,1.0,6.0,50,0.00,,,0.00,weatherlink.com 1.10,2013-03-23 16:46:00,
2013-03-23 13:01:00,45.2,26.0,30.07,ENE,59,2.0,3.0,48,0.00,,,0.00,weatherlink.com 1.10,2013-03-23 17:01:00,
2013-03-23 13:16:00,45.1,27.0,30.07,NNE,29,1.0,7.0,49,0.00,,,0.00,weatherlink.com 1.10,2013-03-23 17:16:00,
2013-03-23 13:31:00,45.1,27.0,30.06,WNW,302,2.0,5.0,49,0.00,,,0.00,weatherlink.com 1.10,2013-03-23 17:31:00,
2013-03-23 14:02:00,45.2,25.0,30.06,North,1,1.0,7.0,46,0.00,,,0.00,weatherlink.com 1.10,2013-03-23 18:02:00,
2013-03-23 14:16:00,45.3,26.0,30.05,NE,47,2.0,7.0,48,0.00,,,0.00,weatherlink.com 1.10,2013-03-23 18:16:00,
2013-03-23 14:31:00,45.5,25.0,30.04,North,1,2.0,9.0,45,0.00,,,0.00,weatherlink.com 1.10,2013-03-23 18:31:00,
2013-03-23 14:46:00,46.4,25.0,30.04,NW,323,2.0,7.0,43,0.00,,,0.00,weatherlink.com 1.10,2013-03-23 18:46:00,
2013-03-23 15:01:00,46.6,27.0,30.04,NW,314,1.0,8.0,46,0.00,,,0.00,weatherlink.com 1.10,2013-03-23 19:01:00,
2013-03-23 15:16:00,47.1,28.0,30.04,North,11,3.0,4.0,48,0.00,,,0.00,weatherlink.com 1.10,2013-03-23 19:16:00,
2013-03-23 15:46:00,47.0,25.0,30.03,West,261,1.0,5.0,42,0.00,,,0.00,weatherlink.com 1.10,2013-03-23 19:46:00,
2013-03-23 16:01:00,46.8,26.0,30.03,West,280,2.0,6.0,44,0.00,,,0.00,weatherlink.com 1.10,2013-03-23 20:01:00,
2013-03-23 16:17:00,47.7,24.0,30.02,WSW,243,0.0,3.0,40,0.00,,,0.00,weatherlink.com 1.10,2013-03-23 20:17:00,
2013-03-23 16:31:00,47.8,24.0,30.02,NE,51,3.0,5.0,40,0.00,,,0.00,weatherlink.com 1.10,2013-03-23 20:31:00,
2013-03-23 16:47:00,47.3,25.0,30.01,East,91,1.0,5.0,42,0.00,,,0.00,weatherlink.com 1.10,2013-03-23 20:47:00,
2013-03-23 17:02:00,47.6,25.0,30.00,East,89,1.0,6.0,41,0.00,,,0.00,weatherlink.com 1.10,2013-03-23 21:02:00,
2013-03-23 17:17:00,47.7,25.0,29.99,NE,34,1.0,3.0,42,0.00,,,0.00,weatherlink.com 1.10,2013-03-23 21:17:00,
2013-03-23 17:32:00,47.3,26.0,29.98,NNE,25,3.0,6.0,43,0.00,,,0.00,weatherlink.com 1.10,2013-03-23 21:32:00,
2013-03-23 17:47:00,46.9,25.0,29.99,NW,321,1.0,7.0,43,0.00,,,0.00,weatherlink.com 1.10,2013-03-23 21:47:00,
2013-03-23 18:02:00,46.8,24.0,29.99,NE,37,0.0,7.0,41,0.00,,,0.00,weatherlink.com 1.10,2013-03-23 22:02:00,
2013-03-23 18:17:00,46.7,24.0,29.99,ENE,78,1.0,4.0,41,0.00,,,0.00,weatherlink.com 1.10,2013-03-23 22:17:00,
2013-03-23 18:32:00,45.9,23.0,29.98,East,94,0.0,6.0,41,0.00,,,0.00,weatherlink.com 1.10,2013-03-23 22:32:00,
2013-03-23 18:47:00,45.7,22.0,29.98,NNE,18,1.0,5.0,40,0.00,,,0.00,weatherlink.com 1.10,2013-03-23 22:47:00,
2013-03-23 19:02:00,45.3,24.0,29.99,NE,54,0.0,5.0,44,0.00,,,0.00,weatherlink.com 1.10,2013-03-23 23:02:00,
2013-03-23 19:17:00,44.3,25.0,29.99,NE,34,2.0,7.0,47,0.00,,,0.00,weatherlink.com 1.10,2013-03-23 23:17:00,
2013-03-23 19:32:00,43.5,24.0,29.99,NNE,33,2.0,4.0,47,0.00,,,0.00,weatherlink.com 1.10,2013-03-23 23:32:00,
2013-03-23 19:47:00,42.0,24.0,29.98,North,11,3.0,4.0,49,0.00,,,0.00,weatherlink.com 1.10,2013-03-23 23:47:00,
2013-03-23 20:02:00,40.9,25.0,29.98,NNE,22,1.0,3.0,53,0.00,,,0.00,weatherlink.com 1.10,2013-03-24 00:02:00,
2013-03-23 20:17:00,40.0,25.0,29.98,WNW,287,0.0,4.0,56,0.00,,,0.00,weatherlink.com 1.10,2013-03-24 00:17:00,
2013-03-23 20:47:00,38.3,25.0,29.98,NW,316,0.0,1.0,58,0.00,,,0.00,weatherlink.com 1.10,2013-03-24 00:47:00,
2013-03-23 21:02:00,37.7,24.0,29.98,ESE,106,0.0,1.0,59,0.00,,,0.00,weatherlink.com 1.10,2013-03-24 01:02:00,
2013-03-23 21:17:00,37.3,24.0,29.98,SSW,194,0.0,2.0,60,0.00,,,0.00,weatherlink.com 1.10,2013-03-24 01:17:00,
2013-03-23 21:32:00,36.5,24.0,29.97,North,355,0.0,2.0,62,0.00,,,0.00,weatherlink.com 1.10,2013-03-24 01:32:00,
2013-03-23 21:47:00,36.1,24.0,29.97,NW,323,0.0,1.0,63,0.00,,,0.00,weatherlink.com 1.10,2013-03-24 01:47:00,
2013-03-23 22:02:00,36.2,25.0,29.96,NNW,330,2.0,4.0,64,0.00,,,0.00,weatherlink.com 1.10,2013-03-24 02:02:00,
2013-03-23 22:17:00,36.3,25.0,29.96,ENE,63,1.0,5.0,65,0.00,,,0.00,weatherlink.com 1.10,2013-03-24 02:17:00,
2013-03-23 22:32:00,36.1,26.0,29.95,East,83,4.0,6.0,67,0.00,,,0.00,weatherlink.com 1.10,2013-03-24 02:32:00,
2013-03-23 22:47:00,36.0,26.0,29.94,East,91,2.0,5.0,68,0.00,,,0.00,weatherlink.com 1.10,2013-03-24 02:47:00,
2013-03-23 23:02:00,35.6,26.0,29.93,SSE,148,1.0,6.0,69,0.00,,,0.00,weatherlink.com 1.10,2013-03-24 03:02:00,
2013-03-23 23:17:00,35.4,27.0,29.92,ENE,77,2.0,6.0,70,0.00,,,0.00,weatherlink.com 1.10,2013-03-24 03:17:00,
2013-03-23 23:32:00,35.1,27.0,29.93,East,86,2.0,10.0,71,0.00,,,0.00,weatherlink.com 1.10,2013-03-24 03:32:00,
2013-03-23 23:47:00,34.8,27.0,29.94,SE,133,3.0,8.0,72,0.00,,,0.00,weatherlink.com 1.10,2013-03-24 03:47:00,